Regional Weather Roundup
Issued by NWS

Home | Current Version | Previous Version | Text Only | Print | Product List | Glossary Off
Versions: 1 2 3 4 5 6 7 8 9 10 11 12 13 14 15 16 17 18 19 20 21 22 23 24 25 26 27 28 29 30 31 32 33 34 35 36 37 38 39 40 41 42 43 44 45 46 47 48 49 50

000
ASUS45 KBOU 301907
RWRCO

WEATHER ROUNDUP FOR COLORADO
NATIONAL WEATHER SERVICE DENVER/BOULDER CO
100 PM MDT SAT AUG 30 2014

NOTE: "FAIR" INDICATES FEW OR NO CLOUDS BELOW 12000 FEET WITH NO
SIGNIFICANT WEATHER AND/OR OBSTRUCTIONS TO VISIBILITY.

COZ001>005-013-030-031-302000-
...NORTHWEST COLORADO...

CITY           SKY/WX    TMP DP  RH WIND       PRES   REMARKS
CRAIG          MOSUNNY   76  42  29 SW20G25   30.08F
HAYDEN         MOSUNNY   75  37  25 W14G23    30.11F
MEEKER         MOSUNNY   78  39  24 SW14      30.11F
MOUNT WERNER   NOT AVBL
STEAMBOAT SPGS MOSUNNY   73  45  36 W6        30.13F
WALDEN         SUNNY     70  36  28 SW21      30.21F
$$

COZ006>008-011-302000-
...WEST CENTRAL VALLEYS...

CITY           SKY/WX    TMP DP  RH WIND       PRES   REMARKS
GRAND JUNCTION PTSUNNY   78  47  33 VRB3      30.04F
MONTROSE       MOSUNNY   79  46  31 N8        30.13F
EAGLE          MOSUNNY   73  45  35 CALM      30.16F
RIFLE          MOSUNNY   74  47  38 CALM      30.09F
DELTA          MOSUNNY   83  40  21 E3        30.09F
NUCLA          MOSUNNY   79  37  22 W10       30.17F
$$

COZ017>023-064>068-302000-
...SOUTHWEST COLORADO...

CITY           SKY/WX    TMP DP  RH WIND       PRES   REMARKS
DURANGO        SUNNY     78  36  21 VRB3      30.22F
CORTEZ         SUNNY     84  38  19 S13       30.17F
PAGOSA SPRINGS SUNNY     75  29  18 S9        30.29F
TELLURIDE      MOSUNNY   66  36  32 W13       30.36F
WOLF CREEK PAS MOSUNNY   52  34  50 S14G23    30.56F
$$

COZ009-010-012-014-032>034-037-058>063-302000-
...CENTRAL COLORADO...

CITY           SKY/WX    TMP DP  RH WIND       PRES   REMARKS
ASPEN          MOSUNNY   75  38  26 N10G18    30.22F
BUENA VISTA    NOT AVBL
COPPER MTN     MOSUNNY   59  32  36 W22G35    30.52F
BERTHOUD PASS  PTSUNNY   48  46  93 W26G33    30.54F
COTTONWOOD PAS MOSUNNY   68  28  22 W12G23    30.37F
GUNNISON       SUNNY     68  39  34 CALM      30.28F
KREMMLING      MOSUNNY   75  34  22 W12G17    30.19F
LEADVILLE      MOSUNNY   61  32  33 W10       30.37S
MONARCH PASS   SUNNY     54  32  43 W23G31    30.64F
SALIDA         MOSUNNY   78  34  20 S15       30.27F
SUNLIGHT       CLOUDY    61  45  55 CALM      30.47F
WILKERSON PASS NOT AVBL
$$

COZ069>075-302000-
...SAN LUIS VALLEY/SANGRE DE CRISTO MOUNTAINS...

CITY           SKY/WX    TMP DP  RH WIND       PRES   REMARKS
ALAMOSA        SUNNY     73  41  31 SE6       30.25F
LA VETA PASS   NOT AVBL
SAGUACHE       NOT AVBL
$$

COZ035-036-038>040-302000-
...NORTHERN COLORADO FRONT RANGE...

CITY           SKY/WX    TMP DP  RH WIND       PRES   REMARKS
DENVER INTL AP MOSUNNY   83  40  21 W10G16    30.01F
DMNS CITY PARK   N/A     85  36  17 SW5       29.99F
AURORA         MOSUNNY   83  38  20 W7        30.03F
FRONT RANGE AP MOSUNNY   84  37  18 S3        30.02
ERIE MUNI ARPT SUNNY     85  36  17 CALM      29.98F
BOULDER MUN AP SUNNY     84  46  26 E5        29.99F
CENTENNIAL     MOSUNNY   81  33  17 VRB3      30.04F
BROOMFIELD     MOSUNNY   84  39  20 VRB3      30.03F
FORT COLLINS   SUNNY     81  57  44 SE10      29.98F
LONGMONT       SUNNY     85  52  32 E5        29.99F
$$

COZ041-046-047-076>085-087-088-302000-
...PIKES PEAK/PALMER DIVIDE AND SOUTHERN FOOTHILLS...

CITY           SKY/WX    TMP DP  RH WIND       PRES   REMARKS
COLO. SPRINGS  MOSUNNY   78  45  30 S9        30.10F
A. F. ACADEMY  SUNNY     77  42  28 SE10      30.10F
ELLICOTT       SUNNY     77  42  28 SW7       30.09F
FALCON         NOT AVBL
FORT CARSON    SUNNY     80  47  31 NE7       30.06F
LIMON          SUNNY     81  43  26 S16       30.04F
MONUMENT HILL  SUNNY     75  37  25 W9        30.13F
TRINIDAD       SUNNY     86  37  17 S8        30.08F
$$

COZ042>045-048>051-090-091-302000-
...NORTHEAST COLORADO...

CITY           SKY/WX    TMP DP  RH WIND       PRES   REMARKS
GREELEY ARPT   SUNNY     81  57  44 S8        29.97F
AKRON          SUNNY     83  48  29 SW7       29.98F
BURLINGTON     SUNNY     86  45  23 SW20G26   30.00F
WRAY             N/A     88  49  25 SW13G22   29.94F
STERLING       SUNNY     81  61  50 S8        29.93F
HOLYOKE        SUNNY     84  57  39 S10       29.94F
FORT MORGAN    SUNNY     80  53  39 S3        29.97F
$$

COZ086-089-092>099-302000-
...SOUTHEAST COLORADO...

CITY           SKY/WX    TMP DP  RH WIND       PRES   REMARKS
PUEBLO         SUNNY     84  41  21 VRB3      30.00F
LA JUNTA       SUNNY     85  48  27 W7        29.99F
LAMAR          SUNNY     89  46  22 S8G23     29.94F
SPRINGFIELD      N/A     86  48  26 SW13G20   30.01F
$$


USA.gov is the U.S. government's official web portal to all federal, state and local government web resources and services.